Tracking 31027 objects as of 19-Jul-2025
HD Live streaming from Space Station
objects crossing your sky now

IGS O-8

Track IGS O-8 now!
10-day predictions
IGS O-8 is classified as:


NORAD ID: 58762
Int'l Code: 2024-010A
Perigee: 487.6 km
Apogee: 492.3 km
Inclination: 97.3 °
Period: 94.3 minutes
Semi major axis: 6860 km
RCS: Unknown
Launch date: January 12, 2024
Source: Japan (JPN)
Launch site: TANEGASHIMA SPACE CENTER (TNSTA)
Your satellite tracking list
FENGYUN 1C DEB
Track 1 satellite(s)




NASA's NSSDC Master Catalog

Two Line Element Set (TLE):
1 58762U 24010A   25189.02434672 0.00000000  00000-0  00000-0 0    01
2 58762  97.3370 310.8732 0003403 310.9630  49.0369 15.27658237    02
Source of the keplerian elements: McCants